www.pogodaiklimat.ru

Погода и климат >> Архив погоды >> Россия >> Самарская область >> Авангард Зерносовхоз


ПОГОДА в Авангард Зерносовхозе

  • Прогноз погоды в Авангард Зерносовхозе
  • Монитор погоды в Авангард Зерносовхозе

АРХИВ ПОГОДЫ в Авангард Зерносовхозе

Время (UTC), дата Ветер
(напр.,м/с)
 
Видим.   Явления Облачность Т
(С)
Тd
(С)
f
(%)
Тe
(С)
Тes
(С)
Комфортность P
(гПа)
Po
(гПа)
Тmin
(С)
Tmax
(С)
R
(мм)
R24
(мм)
S
(см)
00 19.08 Ю 3 50 км 6/0
[Ci sp]
+19.5 +9.7 53 +21 +21 комфорт 1019.4 1008.7
03 19.08 Ю 3 20 км 10/4 600 м
[Sc Ci sp]
+20.2 +11.2 56 +22 +23 комфорт 1019.7 1009.0 +18.3
06 19.08 ЮВ 2 20 км 10/3 300 м
[Sc diur, vesp Ac lent Ci sp]
+29.3 +10.6 31 +29 +32 жарко 1019.8 1009.5
09 19.08 Ю 3
{11}
20 км 8/4 300 м
[Sc Ac trans]
+34.8 +6.7 18 +33 +37 жарко 1019.7 1009.6
12 19.08 Ю 5
{10}
20 км 8/3 600 м
[Sc Ac trans Ci sp]
+34.7 +4.9 16 +32 +34 жарко 1019.4 1009.2
15 19.08 Ю 3 20 км 8/5 300 м
[Sc Ac cast Ci fib]
+32.5 +5.2 18 +30 +30 жарко 1019.2 1008.9 +36.2
18 19.08 Ю 3 50 км 10/0
[Ci sp]
+26.0 +8.9 34 +26 +26 жарко 1019.6 1009.1
21 19.08 ЮВ 3 50 км 8/0
[Ci]
+25.1 +7.6 33 +25 +25 комфорт 1019.7 1009.2
00 20.08 Ю 2 50 км 10/0
[Ci sp]
+21.5 +8.6 44 +23 +23 комфорт 1019.2 1008.6
03 20.08 ЮВ 2 20 км 10/6 600 м
[Cb cap Ac lent]
+24.5 +7.6 34 +25 +25 комфорт 1019.2 1008.7 +18.2
06 20.08 ЮЗ 4 20 км 6/3 600 м
[Sc Ac cuf Ci sp]
+29.8 +8.6 27 +29 +32 жарко 1019.3 1009.0
09 20.08 ЮЗ 6-10
{10}
20 км 5/0
[Ci sp]
+35.6 +8.7 19 +34 +38 очень
жарко
1018.2 1008.1
12 20.08 ЮЗ 6-10
{11}
20 км 5/3 600 м
[Sc diur, vesp Ci sp]
+36.6 +6.0 15 +34 +36 очень
жарко
1017.4 1007.3
15 20.08 С 3
{10}
20 км 3/3 600 м
[Sc diur, vesp]
+32.3 +11.2 27 +32 +32 жарко 1017.1 1006.9 +36.7
18 20.08 СЗ 1 50 км ясно +22.3 +15.8 67 +26 +26 жарко 1018.6 1008.1
21 20.08 СЗ 2 50 км ясно +18.9 +15.7 82 +21 +21 комфорт 1019.3 1008.6
00 21.08 СЗ 1 50 км 3/0
[Ci fib]
+16.9 +15.4 91 +18 +18 1019.2 1008.5
03 21.08 С 1 20 км 6/3 1000 м
[Cb cap Ac trans Ci sp]
+18.2 +16.0 87 +20 +20 1019.4 1008.7 +15.8
06 21.08 СВ 4 20 км 6/0
[Ci sp]
+25.6 +15.7 54 +29 +34 душно 1019.4 1009.0
09 21.08 С 5
{10}
20 км 1/1 600 м
[Cu hum]
+27.8 +14.0 43 +30 +36 жарко 1019.3 1008.9
12 21.08 С 5
{10}
20 км 1/0
[Ci fib]
+28.7 +12.8 38 +30 +33 жарко 1018.5 1008.2
15 21.08 С 4
{10}
20 км 4/1 600 м
[Sc Ci]
+26.5 +14.3 47 +29 +29 жарко 1019.3 1008.9 +28.9
18 21.08 СВ 2 50 км ясно +20.8 +14.8 69 +24 +24 комфорт 1021.0 1010.4
21 21.08 СВ 1 50 км ясно +14.0 +12.8 92 +14 +14 1021.0 1010.1
00 22.08 СЗ 1 50 км ясно +13.2 +12.5 96 +13 +13 1021.8 1010.8
03 22.08 СЗ 1 20 км 3/0
[Ci fib]
+14.1 +13.0 93 +14 +15 1022.2 1011.3 +10.7
06 22.08 СВ 4 20 км 3/1 600 м
[Cu hum Ci fib]
+23.8 +15.8 61 +27 +32 жарко 1021.6 1011.1
09 22.08 СВ 4 20 км 4/3 600 м
[Cu med, cong Ci fib]
+27.8 +13.0 40 +29 +35 жарко 1020.7 1010.3
12 22.08 С 2 20 км 4/3 1000 м
[Cu hum Ci sp]
+29.1 +11.8 34 +30 +34 жарко 1019.8 1009.5
15 22.08 СВ 1 20 км 8/0
[Ci fib]
+26.5 +12.4 42 +28 +28 жарко 1019.6 1009.2 +29.7
18 22.08 С 1 50 км {туман} ясно +19.5 +13.0 66 +22 +22 комфорт 1020.4 1009.7
21 22.08 ЮЗ 1 50 км ясно +16.3 +12.5 78 +17 +17 1021.2 1010.4
00 23.08 штиль 0 50 км ясно +12.3 +10.9 91 +12 +12 1021.3 1010.3
03 23.08 штиль 0 20 км 3/0
[Ci fib]
+14.8 +12.2 84 +15 +16 1021.6 1010.7 +11.2
06 23.08 СЗ 2 20 км 8/0
[Ci]
+25.6 +12.8 45 +27 +34 жарко 1021.3 1010.8
09 23.08 СЗ 1 20 км 6/3 1000 м
[Cu med, cong Ac cuf Ci]
+30.0 +12.3 34 +31 +39 жарко 1020.6 1010.3
12 23.08 С 3 20 км 8/4 600 м
[Cu med, cong Ac lent Ci sp]
+30.0 +12.6 34 +31 +33 жарко 1020.1 1009.8
15 23.08 С 2 20 км 8/1 1000 м
[Cb cap Ac lent Ci]
+28.2 +11.9 36 +29 +29 жарко 1020.3 1009.9 +30.7
18 23.08 С 3 50 км 8/4 300 м
[Sc diur, vesp Ci fib]
+22.7 +17.2 71 +28 +28 душно 1021.7 1011.1
21 23.08 С 2 50 км ясно +18.9 +12.4 66 +20 +20 1022.1 1011.4
00 24.08 СЗ 1 50 км ясно +14.5 +11.8 84 +15 +15 1022.6 1011.7
03 24.08 С 2 20 км 8/1
[Sc Ci fib]
+15.0 +11.3 79 +15 +15 1023.1 1012.3 +13.9
06 24.08 СВ 3 20 км 10/3 600 м
[Sc diur, vesp Cc]
+22.6 +12.4 52 +25 +29 комфорт 1022.6 1012.0
09 24.08 С 4 20 км 10/3 1000 м
[Sc diur, vesp Cs]
+25.1 +9.9 38 +26 +30 жарко 1021.8 1011.3
12 24.08 СВ 3 20 км 6/0
[Ac trans Cc]
+26.4 +6.4 28 +26 +30 жарко 1020.8 1010.3
15 24.08 С 3 20 км 3/0
[Ci fib]
+24.4 +6.5 32 +24 +25 комфорт 1020.6 1010.1 +27.0
18 24.08 С 1 50 км ясно +15.5 +7.8 60 +16 +16 1020.6 1009.8
21 24.08 штиль 0 50 км ясно +9.8 +6.0 77 +9 +9 1020.4 1009.4
00 25.08 С 1 50 км ясно +6.2 +4.1 86 +5 +5 1019.9 1008.7
03 25.08 В 1 20 км ясно +8.0 +5.5 84 +7 +8 1019.5 1008.3 +3.9
06 25.08 С 2 20 км ясно +22.6 +7.6 38 +24 +32 комфорт 1018.3 1007.7
09 25.08 СЗ 4 20 км н/о +26.1 +6.5 29 +26 +26 жарко 1016.7 1006.3
12 25.08 СЗ 6
{10}
20 км 3/3 600 м
[Cu hum Ci fib]
+26.7 +5.4 26 +26 +28 жарко 1015.8 1005.4
15 25.08 С 4
{10}
20 км 8/6 600 м
[Cb cap Ci sp]
+23.3 +10.2 43 +25 +25 комфорт 1016.5 1006.0 +27.4
18 25.08 С 5 50 км ясно +18.4 +9.1 55 +18 +18 1019.0 1008.3
21 25.08 СЗ 2 50 км ясно +13.4 +8.6 73 +13 +13 1020.0 1009.1

 

Местоположение метеостанции Авангард Зерносовхоз (Самарская область, Россия): широта 52.62 долгота 51.28 высота над уровнем моря 88 м.

В архиве по умолчанию представлена погода в Авангард Зерносовхозе за последнюю неделю. Архивные данные за месяц целиком и за предыдущие месяцы, начиная с января 2011 года, Вы можете получить, выбрав интересующий диапазон дат из раскрывающегося списка и нажав кнопку "Ввод!".


*Определитесь, кто Вы:
робот инопланетянин человек

Внимание! Время в таблицах - всемирное. Для получения местного времени необходимо прибавить поправку, которая равна 4 ч.

Смотрите также архив погоды в соседних городах и на ближайших метеорологических станциях:

Погода в Богатом (Самарская область, Россия) (51 км)
Погода в Красносамарском (Самарская область, Россия) (57 км)
Погода в Большая Глушица (Самарская область, Россия) (61 км)
Погода в Бузулуке (Оренбургская область, Россия) (67 км)
Погода в Первомайском (Оренбургская область, Россия) (84 км)
Погода в Аглосе (Самарская область, Россия) (88 км)
Погода в Самаре-Центр (Самарская область, Россия) (92 км)
Погода в Кинель-Черкассах (Самарская область, Россия) (97 км)
Погода в Самаре АМС (Самарская область, Россия) (100 км)
Погода в Самаре (Самарская область, Россия) (100 км)

Пояснения к столбцам:

Ветер - указаны скорость ветра в м/с - средняя за 10 мин, порывы в срок и между сроками (в фигурных скобках) и направление, откуда дует ветер: С - северный, СВ - северо-восточный, В - восточный, ЮВ - юго-восточный, Ю - южный, ЮЗ - юго-западный, З - западный, СЗ - северо-западный.
Видимость - горизонтальная дальность видимости в метрах или километрах. При видимости от 1 до 10 км при отсутствии осадков обычно наблюдается дымка, при ухудшении видимости до 1 км и менее - туман. В сухую погоду видимость может ухудшаться дымом, пылью или мглою.
Явления - указаны атмосферные явления, наблюдавшиеся в срок или в последний час перед сроком; фигурными скобками обозначены явления, наблюдавшиеся между сроками (за 1-3 часа до срока); квадратными скобками обозначены град или гололедные отложения с указанием их диаметра в мм.
Облачность - указаны через наклонную черту общая и нижняя облачность в баллах и высота нижней границы облаков в метрах; квадратными скобками обозначены формы облаков: Ci - перистые, Cs - перисто-слоистые, Cc - перисто-кучевые, Ac - высококучевые, As - высокослоистые, Sc - слоисто-кучевые, Ns - слоисто-дождевые, Cu - кучевые, Cb - кучево-дождевые. Подробнее классификацию облаков см. в Атласе облаков (PDF).
T - Температура воздуха - температура, измеренная на высоте 2 м над землей.
Td - Температура точки росы - температура, при понижении до которой содержащийся в воздухе водяной пар достигнет насыщения.
f - Относительная влажность воздуха - влажноcть воздуха, измеренная на высоте 2 м над землей.
Te - Эффективная температура - температура, которую ощущает одетый по сезону человек в тени. Характеристика душности погоды. При расчете учитывается влияние влажности воздуха и скорости ветра на теплоощущения человека.
Tes - Эффективная температура на солнце - температура, которую ощущает человек, с поправкой на солнечный нагрев. Характеристика знойности погоды. Зависит от высоты солнца над горизонтом, облачности и скорости ветра. Ночью, в пасмурную погоду, а также при ветре 12 м/с и более поправка равна нулю.
P - Атмосферное давление - приведенное к уровню моря атмосферное давление.
Po - Атмосферное давление - измеренное на уровне метеостанции атмосферное давление.
Tmin - Минимальная температура - минимум температуры воздуха на высоте 2 м над землей.
Tmax - Максимальная температура - максимум температуры воздуха на высоте 2 м над землей.
R - Количество осадков - Количество выпавших осадков за период времени, мм. При наведении курсора мыши на число - период времени, за который выпало указанное количество осадков.
R24 - Количество осадков - Количество выпавших осадков за 24 часа, мм.
S - Снежный покров - Высота снежного покрова, см. При наведении курсора мыши на число - состояние снежного покрова и степень покрытия местности в баллах.